Date,TemperatureHighF,TemperatureAvgF,TemperatureLowF,DewpointHighF,DewpointAvgF,DewpointLowF,HumidityHigh,HumidityAvg,HumidityLow,PressureMaxIn,PressureMinIn,WindSpeedMaxMPH,WindSpeedAvgMPH,GustSpeedMaxMPH,PrecipitationSumIn
2013-1-1,25,19,15,19,15,11,92,84,71,30.41,30.29,12,3,14,0.00
2013-1-2,34,26,18,28,20,11,92,80,70,30.43,30.26,17,7,21,0.01
2013-1-3,29,22,15,21,16,7,88,78,65,30.54,30.41,12,4,15,0.00
2013-1-4,35,23,14,22,13,6,79,65,49,30.41,30.19,10,2,13,0.00
2013-1-5,40,26,15,29,19,9,83,74,61,30.44,30.15,10,4,16,0.01
2013-1-6,42,30,20,30,21,10,79,70,57,30.45,30.06,18,6,22,0.00
2013-1-7,42,33,26,29,24,19,82,71,56,30.09,29.95,15,3,18,0.00
2013-1-8,47,32,18,33,25,15,89,75,57,30.32,29.90,9,2,12,0.00
2013-1-9,50,38,25,36,29,20,84,71,56,30.47,30.27,13,5,21,0.00
2013-1-10,38,36,34,36,32,29,97,87,70,30.27,29.60,12,5,16,0.00
2013-1-11,46,34,19,37,31,12,97,90,62,29.96,29.33,18,7,26,0.00
2013-1-12,22,16,8,12,8,4,82,71,61,30.35,29.97,15,5,21,0.00
2013-1-13,23,12,4,11,5,-1,85,76,58,30.52,30.35,9,2,14,0.00
2013-1-14,26,16,6,17,10,2,90,77,60,30.59,30.42,12,2,14,0.00
2013-1-15,31,22,9,23,13,6,89,71,37,30.44,30.20,11,5,17,0.00
2013-1-16,49,37,30,29,26,23,82,66,46,30.39,30.18,15,6,22,0.00
2013-1-17,52,38,26,28,24,20,83,59,33,30.56,30.30,13,4,15,0.00
2013-1-18,57,42,28,27,24,22,79,53,29,30.29,30.03,17,7,21,0.00
2013-1-19,57,44,33,26,23,19,72,44,27,30.27,30.02,15,6,22,0.00
2013-1-20,43,28,21,32,23,17,92,81,60,30.50,30.19,9,2,18,0.00
2013-1-21,36,24,16,26,19,13,93,81,63,30.47,30.29,15,4,18,0.00
2013-1-22,43,27,15,26,20,13,92,76,47,30.33,30.22,19,3,21,0.00
2013-1-23,42,34,21,26,22,16,82,63,49,30.42,30.20,18,7,22,0.00
2013-1-24,34,23,11,25,18,8,89,80,65,30.43,30.15,16,5,20,0.00
2013-1-25,56,38,27,28,25,21,80,62,33,30.36,30.18,12,4,18,0.00
2013-1-26,58,42,28,37,29,23,88,63,37,30.18,29.86,14,6,18,0.01
2013-1-27,54,42,35,44,39,34,97,88,68,29.85,29.68,14,4,16,0.02
2013-1-28,44,38,33,41,36,32,96,94,89,29.81,29.55,14,4,15,0.01
2013-1-29,36,32,26,32,29,22,94,89,82,29.91,29.71,10,2,18,0.00
2013-1-30,38,27,17,24,17,12,88,68,39,30.06,29.91,17,7,22,0.00
2013-1-31,32,28,23,25,19,12,80,68,52,30.39,30.01,10,4,17,0.00
2013-2-1,54,35,19,35,26,17,91,72,37,30.36,30.08,22,8,26,0.00
2013-2-2,55,40,30,31,26,21,92,63,30,30.34,30.23,23,6,26,0.00
2013-2-3,51,39,28,27,24,20,76,55,35,30.34,29.87,17,5,26,0.00
2013-2-4,58,41,27,28,22,18,82,52,22,30.03,29.85,12,2,16,0.00
2013-2-5,57,43,32,29,25,20,66,50,31,30.08,29.92,12,3,13,0.00
2013-2-6,63,46,33,36,28,24,71,54,27,29.96,29.74,11,3,17,0.00
2013-2-7,56,43,30,34,25,15,89,54,24,30.18,29.96,11,2,15,0.00
2013-2-8,54,41,28,28,23,14,76,50,34,30.19,29.85,26,10,41,0.00
2013-2-9,57,43,34,42,28,18,94,57,37,29.85,29.37,21,11,32,0.09
2013-2-10,40,31,26,32,26,20,94,83,65,30.14,29.33,31,13,41,0.01
2013-2-11,38,28,19,19,16,14,79,63,39,30.29,30.15,11,4,18,0.00
2013-2-12,46,32,20,20,16,10,79,56,25,30.22,30.06,16,5,20,0.00
2013-2-13,56,38,26,27,21,17,74,53,30,30.09,29.90,20,7,23,0.00
2013-2-14,40,32,19,33,25,16,90,76,54,30.42,30.01,10,2,19,0.01
2013-2-15,40,25,17,23,17,14,89,73,39,30.50,30.41,11,2,16,0.00
2013-2-16,60,41,19,29,23,14,82,54,29,30.45,30.00,19,6,28,0.00
2013-2-17,67,48,29,27,20,9,69,40,10,30.00,29.48,17,6,26,0.00
2013-2-18,48,37,24,29,22,15,82,57,33,30.21,29.57,17,4,23,0.00
2013-2-19,41,27,17,20,16,11,87,66,41,30.35,30.19,16,6,27,0.00
2013-2-20,24,20,18,21,13,5,92,77,54,30.20,30.02,23,13,27,0.00
2013-2-21,21,17,14,19,15,12,92,91,89,30.11,29.99,23,6,32,0.00
2013-2-22,29,16,6,24,13,3,90,87,82,30.23,30.10,8,2,11,0.10
2013-2-23,39,28,17,32,23,13,93,83,73,30.14,29.84,18,7,20,0.03
2013-2-24,32,28,21,30,26,19,95,93,89,30.18,29.86,8,3,13,0.00
2013-2-25,38,30,20,31,27,18,96,88,72,30.18,30.00,3,0,9,0.06
2013-2-26,37,23,10,26,17,7,92,80,62,30.13,29.94,5,1,8,0.00
2013-2-27,38,31,23,29,25,18,89,79,69,30.30,30.13,12,3,20,0.00
2013-2-28,42,31,21,29,23,15,87,72,55,30.37,30.27,10,2,13,0.00
2013-3-1,43,33,25,33,28,24,94,83,63,30.39,30.28,9,2,13,0.00
2013-3-2,58,43,27,40,33,24,91,71,46,30.38,30.05,12,4,16,0.00
2013-3-3,66,49,38,42,36,30,75,62,32,30.05,29.58,12,3,14,0.00
2013-3-4,50,39,27,36,27,13,86,63,42,30.25,29.60,13,4,21,0.01
2013-3-5,45,31,22,18,14,12,73,52,28,30.45,30.25,20,5,24,0.00
2013-3-6,50,33,21,30,23,17,85,69,43,30.41,30.03,20,9,29,0.00
2013-3-7,52,37,26,33,29,23,92,74,47,30.08,30.00,12,5,20,0.00
2013-3-8,59,42,29,51,37,27,92,81,60,30.05,29.64,18,5,20,0.00
2013-3-9,54,41,32,52,39,30,96,93,88,29.90,29.51,16,6,24,0.00
2013-3-10,32,26,17,31,21,13,96,83,65,30.19,29.91,14,3,18,0.13
2013-3-11,51,33,18,34,24,13,84,70,48,30.17,30.02,8,2,13,0.07
2013-3-12,46,38,32,31,23,14,87,58,31,30.38,30.16,16,4,25,0.00
2013-3-13,66,47,29,36,27,16,65,48,28,30.38,30.15,11,4,17,0.00
2013-3-14,74,58,43,37,33,30,70,42,21,30.18,30.00,15,5,24,0.00
2013-3-15,81,62,44,38,31,21,64,36,11,29.98,29.65,16,6,22,0.00
2013-3-16,54,40,32,38,32,29,93,73,52,30.04,29.77,15,3,19,0.02
2013-3-17,52,38,30,40,33,29,96,83,51,30.02,29.59,19,6,31,0.02
2013-3-18,53,40,26,37,22,15,95,56,23,30.05,29.83,23,5,26,0.00
2013-3-19,53,38,28,22,18,13,74,47,23,30.38,30.03,18,4,22,0.00
2013-3-20,49,35,20,22,18,9,84,52,29,30.46,29.93,23,5,24,0.00
2013-3-21,50,38,25,30,23,18,92,57,40,29.93,29.69,19,7,26,0.00
2013-3-22,51,38,26,34,29,24,94,73,38,29.98,29.84,19,5,26,0.02
2013-3-23,33,29,23,31,27,20,95,94,90,30.27,29.95,15,4,17,0.10
2013-3-24,31,20,9,24,15,7,90,83,69,30.40,30.26,10,2,17,0.01
2013-3-25,30,22,12,20,16,8,85,75,64,30.52,30.41,12,5,19,0.00
2013-3-26,46,29,10,31,20,5,82,69,51,30.50,30.15,17,3,18,0.02
2013-3-27,57,42,28,37,31,26,90,67,41,30.18,30.10,10,1,14,0.00
2013-3-28,64,49,34,38,34,29,82,59,34,30.19,30.04,13,3,21,0.00
2013-3-29,69,54,39,49,42,34,84,65,38,30.12,29.91,14,4,25,0.08
2013-3-30,69,54,41,47,41,36,87,65,31,30.08,29.88,14,3,24,0.00
2013-3-31,70,50,35,41,34,27,93,62,21,30.09,29.85,19,4,23,0.01
2013-4-1,50,39,31,29,28,26,88,65,41,30.27,30.05,15,4,19,0.00
2013-4-2,46,40,36,28,26,24,72,58,43,30.27,30.20,11,2,19,0.00
2013-4-3,51,42,34,32,29,23,85,61,36,30.28,30.17,14,4,22,0.00
2013-4-4,66,47,30,36,32,27,90,62,30,30.21,30.06,13,3,16,0.00
2013-4-5,76,60,0,41,33,30,72,40,19,30.07,29.53,22,-6,33,0.00
2013-4-6,74,61,48,41,35,27,69,40,20,29.75,29.51,18,6,22,0.00
2013-4-7,73,61,49,51,41,29,86,51,23,29.74,29.52,14,3,30,0.00
2013-4-8,72,57,42,58,48,35,90,72,45,29.59,29.34,36,7,45,0.00
2013-4-9,54,27,18,48,25,16,94,92,78,30.25,29.40,15,6,29,0.31
2013-4-10,29,25,19,25,20,17,90,84,78,30.27,30.10,9,4,21,0.00
2013-4-11,47,31,21,30,24,18,91,77,48,30.10,29.83,15,6,23,0.01
2013-4-12,55,39,27,40,32,24,94,79,44,30.08,29.96,9,2,16,0.06
2013-4-13,69,50,32,47,39,30,95,71,38,30.08,29.31,28,9,32,0.01
2013-4-14,61,52,41,46,28,12,84,43,19,29.73,29.17,28,10,37,0.00
2013-4-15,49,40,32,27,23,-100,76,54,36,30.06,29.71,10,-10,17,0.00
2013-4-16,44,38,32,29,27,25,86,66,52,30.20,30.04,26,10,28,0.00
2013-4-17,39,34,27,32,30,26,94,86,61,30.11,29.93,12,3,22,0.00
2013-4-18,34,29,24,27,24,20,95,83,69,30.23,30.06,14,4,26,0.09
2013-4-19,60,41,24,37,28,19,84,63,33,30.20,30.03,17,7,26,0.00
2013-4-20,59,44,31,37,32,27,87,65,37,30.07,29.94,20,6,23,0.00
2013-4-21,69,52,34,42,37,31,92,61,29,30.04,29.93,15,3,19,0.00
2013-4-22,51,39,29,45,37,26,97,92,73,30.36,29.85,19,4,23,0.30
2013-4-23,44,32,26,29,24,20,94,75,43,30.39,30.24,8,1,14,0.06
2013-4-24,59,42,25,29,24,18,85,55,22,30.32,30.17,17,4,28,0.00
2013-4-25,71,53,33,35,28,24,72,43,20,30.28,29.87,29,10,39,0.00
2013-4-26,78,61,44,47,32,25,81,38,15,30.10,29.90,17,5,23,0.00
2013-4-27,80,63,46,48,38,21,89,51,11,30.09,29.82,15,3,21,0.00
2013-4-28,87,70,49,45,33,24,70,31,10,29.84,29.60,20,7,29,0.00
2013-4-29,83,66,47,43,39,36,70,42,19,29.73,29.41,13,3,19,0.00
2013-4-30,70,61,51,43,39,25,67,47,30,29.80,29.39,15,6,26,0.00
2013-5-1,53,37,31,37,34,30,96,89,42,30.62,29.82,22,6,25,0.12
2013-5-2,52,40,30,36,31,27,96,73,38,30.76,30.50,10,1,13,0.34
2013-5-3,61,46,32,36,29,24,85,55,28,30.50,30.08,6,1,15,0.00
2013-5-4,62,45,28,28,24,20,80,50,22,30.19,30.11,11,2,17,0.00
2013-5-5,66,59,50,29,24,17,39,27,17,30.27,30.11,9,1,11,0.00
2013-5-6,71,57,41,44,35,24,75,45,29,30.13,29.92,12,3,24,0.00
2013-5-7,70,58,51,54,49,40,88,73,56,29.96,29.77,21,6,27,0.00
2013-5-8,76,65,49,53,49,42,94,60,31,29.88,29.80,19,4,26,0.00
2013-5-9,65,56,48,52,49,45,91,78,60,30.07,29.86,13,2,16,0.00
2013-5-10,71,57,44,51,46,42,94,69,38,30.12,30.02,10,1,29,0.06
2013-5-11,68,57,47,48,37,26,90,53,25,30.32,30.10,8,1,14,0.00
2013-5-12,80,62,44,49,42,33,86,52,26,30.19,29.95,8,2,13,0.00
2013-5-13,94,74,54,49,44,37,75,42,15,29.97,29.78,7,1,12,0.00
2013-5-14,99,82,62,51,43,37,49,28,13,29.72,29.53,15,3,19,0.00
2013-5-15,84,73,59,55,48,42,64,42,28,29.69,29.60,21,6,24,0.00
2013-5-16,82,67,59,58,54,48,82,66,33,29.71,29.60,14,4,23,0.08
2013-5-17,85,72,56,64,58,53,91,65,34,29.77,29.61,22,8,28,0.00
2013-5-18,84,71,61,67,62,52,90,75,55,29.65,29.43,17,5,26,0.00
2013-5-19,72,63,55,55,52,46,91,69,48,29.61,29.54,20,6,28,0.10
2013-5-20,68,59,54,52,48,44,89,68,42,29.77,29.61,22,12,35,0.00
2013-5-21,68,58,50,47,44,41,83,63,40,29.84,29.73,19,8,32,0.00
2013-5-22,74,59,42,49,46,40,93,66,38,29.97,29.83,11,2,15,0.00
2013-5-23,70,58,48,52,49,45,91,73,51,30.12,30.00,16,5,25,0.02
2013-5-24,84,67,56,66,57,51,92,72,39,30.07,29.73,25,10,32,0.00
2013-5-25,92,74,61,66,54,-100,88,55,31,29.86,29.61,22,-13,34,0.05
2013-5-26,93,78,64,63,57,46,93,56,21,29.71,29.52,19,8,27,0.00
2013-5-27,79,70,62,67,62,49,94,75,51,29.57,29.44,17,4,21,0.00
2013-5-28,85,70,55,66,58,51,95,70,35,29.64,29.40,24,5,31,0.00
2013-5-29,86,67,55,66,57,49,92,74,41,29.47,29.16,22,5,28,0.60
2013-5-30,76,62,52,53,49,39,95,67,28,29.62,29.45,24,6,33,0.13
2013-5-31,78,64,50,49,42,30,87,51,18,29.80,29.62,26,8,37,0.02
2013-6-1,70,59,52,49,46,44,78,62,43,30.09,29.77,19,7,28,0.00
2013-6-2,76,61,44,49,46,41,87,60,35,30.12,29.83,17,3,24,0.00
2013-6-3,91,67,53,60,49,-100,77,58,27,29.83,29.50,18,9,31,0.02
2013-6-4,74,69,62,62,59,54,90,72,59,29.92,29.79,18,3,21,0.03
2013-6-5,65,57,50,56,50,47,92,78,55,30.07,29.89,8,1,14,0.02
2013-6-6,76,62,47,53,49,44,92,67,42,30.06,29.90,7,1,10,0.03
2013-6-7,81,67,51,56,52,48,89,62,35,29.98,29.69,11,2,22,0.00
2013-6-8,79,68,60,61,56,52,86,69,45,29.80,29.50,15,2,21,0.00
2013-6-9,88,70,55,54,50,47,82,53,26,29.86,29.73,11,2,17,0.00
2013-6-10,103,80,60,68,55,47,65,47,15,29.79,29.51,11,3,23,0.00
2013-6-11,107,88,70,65,54,39,71,37,10,29.57,29.31,23,5,32,0.00
2013-6-12,94,79,65,65,60,52,89,56,26,29.90,29.39,10,2,16,0.00
2013-6-13,88,69,55,64,56,51,90,65,38,30.00,29.75,20,-16,28,0.26
2013-6-14,-200,0,200,-100,-100,-100,0,0,100,29.71,0.00,0,-999,0,0.00
2013-6-17,85,66,70,60,34,-100,71,42,37,29.96,0.00,11,-117,17,0.00
2013-6-18,87,73,60,61,58,51,88,61,31,29.96,29.77,20,3,28,0.02
2013-6-19,83,71,61,65,60,55,89,70,51,29.83,29.67,34,8,47,0.00
2013-6-21,99,90,74,63,58,48,52,36,18,29.58,29.44,19,10,30,0.00
2013-6-22,94,81,66,65,62,53,85,55,33,29.59,29.42,21,7,38,0.00
2013-6-23,84,69,62,66,60,54,85,72,50,29.72,29.57,16,6,22,0.00
2013-6-24,94,78,62,67,61,58,91,61,31,29.73,29.46,25,4,32,0.11
2013-6-25,97,82,66,66,57,45,86,48,18,29.64,29.44,14,3,28,0.00
2013-6-26,100,84,63,57,51,44,71,35,15,29.78,29.64,11,1,21,0.00
2013-6-27,96,85,73,67,63,53,76,50,29,29.91,29.70,13,4,21,0.00
2013-6-28,95,80,64,67,59,52,91,55,24,29.96,29.86,9,2,14,0.00
2013-6-29,89,77,63,57,54,48,72,48,33,29.95,29.83,7,1,17,0.00
2013-6-30,84,71,58,55,50,47,71,50,29,30.04,29.93,8,1,15,0.00
2013-7-1,82,68,54,53,48,42,82,52,27,30.15,30.05,13,2,18,0.00
2013-7-2,84,70,57,46,42,38,63,39,20,30.13,29.98,11,1,15,0.00
2013-7-3,88,74,58,45,42,39,56,35,19,30.00,29.75,16,4,23,0.00
2013-7-4,91,78,61,52,48,43,64,37,20,29.79,29.65,13,5,21,0.00
2013-7-5,98,83,70,60,53,49,53,38,21,29.68,29.49,17,6,40,0.03
2013-7-6,100,82,69,60,57,55,65,46,23,29.61,29.52,21,3,28,0.03
2013-7-7,99,86,71,67,60,56,88,43,26,29.79,29.60,16,4,27,0.04
2013-7-8,100,83,67,68,63,58,91,56,25,29.81,29.63,19,3,32,0.13
2013-7-9,102,86,70,68,63,56,82,49,23,29.82,29.69,12,2,16,0.00
2013-7-10,88,77,65,70,65,57,91,68,36,29.98,29.82,31,5,45,0.52
2013-7-11,94,81,67,69,64,59,92,61,31,29.92,29.68,21,3,24,0.00
2013-7-12,102,86,71,65,61,54,73,47,21,29.74,29.58,16,5,22,0.00
2013-7-13,104,89,74,63,60,56,62,40,21,29.71,29.57,19,4,23,0.00
2013-7-15,85,78,68,65,57,50,86,52,32,30.06,29.95,10,3,19,0.01
2013-7-16,82,72,64,63,62,58,90,71,49,30.12,30.00,20,5,31,0.01
2013-7-17,87,74,60,64,61,58,94,67,41,30.19,30.02,21,6,26,0.00
2013-7-18,92,80,67,65,63,60,89,59,36,30.03,29.74,24,8,31,0.00
2013-7-19,93,77,68,72,65,62,91,69,37,29.86,29.75,15,3,26,0.14
2013-7-20,88,75,63,68,64,61,94,73,45,29.83,29.70,16,2,28,0.14
2013-7-21,90,75,60,66,61,56,88,65,37,29.85,29.64,17,3,23,0.00
2013-7-22,98,83,67,70,59,51,90,50,22,29.71,29.62,27,5,32,0.02
2013-7-23,92,78,66,66,60,55,83,56,33,29.87,29.64,27,8,34,0.02
2013-7-24,89,76,63,64,61,56,93,66,32,29.99,29.85,14,2,33,0.00
2013-7-25,80,71,64,70,64,60,93,81,58,29.99,29.84,12,2,19,0.05
2013-7-26,84,72,61,67,61,56,97,71,38,30.08,29.96,16,2,17,0.01
2013-7-27,68,62,57,58,55,53,89,78,65,30.05,29.91,18,7,27,0.02
2013-7-28,60,58,55,59,56,52,97,92,82,29.99,29.90,13,2,16,0.15
2013-7-29,74,66,60,67,64,59,97,91,80,29.95,29.86,10,0,11,0.01
2013-7-30,86,74,65,67,64,62,95,76,45,30.01,29.91,9,1,15,0.01
2013-7-31,87,76,66,69,66,64,95,73,50,30.11,29.94,18,4,19,0.01
2013-8-1,90,77,64,70,65,61,91,70,50,30.01,29.64,17,4,27,0.01
2013-8-2,91,76,63,69,64,59,88,69,41,29.83,29.70,18,6,27,0.00
2013-8-3,72,70,67,68,66,63,95,86,76,30.04,29.83,21,8,30,0.00
2013-8-4,82,71,63,70,66,62,96,86,66,30.02,29.84,10,3,15,0.34
2013-8-5,89,76,70,74,71,68,96,85,52,29.88,29.71,12,2,18,0.34
2013-8-6,87,76,66,72,69,65,97,81,56,29.77,29.68,12,2,19,0.00
2013-8-7,80,70,61,70,63,58,93,78,61,29.90,29.77,17,3,31,0.31
2013-8-8,76,68,63,65,61,50,95,79,41,29.98,29.86,9,1,12,0.03
2013-8-9,82,70,58,64,60,57,96,72,45,30.06,29.96,9,1,14,0.01
2013-8-10,80,70,59,63,60,57,92,71,48,30.08,29.94,13,4,21,0.01
2013-8-11,81,72,63,70,65,61,93,80,65,30.00,29.86,9,2,17,0.00
2013-8-12,85,78,66,66,64,62,94,65,46,29.97,29.88,14,2,16,0.07
2013-8-13,82,72,65,67,63,60,93,76,49,30.03,29.94,17,2,25,0.02
2013-8-14,80,70,63,65,63,60,92,80,53,30.04,29.88,9,2,15,0.02
2013-8-15,87,71,60,65,59,55,91,68,37,29.98,29.85,14,2,22,0.01
2013-8-16,79,70,63,66,64,59,95,82,61,30.00,29.93,10,3,15,0.01
2013-8-17,75,69,66,67,65,64,93,86,76,30.00,29.90,11,3,18,0.00
2013-8-18,81,70,64,68,64,62,92,82,62,29.95,29.84,11,3,20,0.00
2013-8-19,89,75,62,69,65,60,95,74,46,29.93,29.78,9,2,16,0.00
2013-8-20,94,79,66,68,65,62,88,64,38,29.81,29.72,17,5,22,0.00
2013-8-21,97,81,67,67,64,61,82,58,32,29.78,29.69,20,5,23,0.00
2013-8-22,91,79,66,67,63,58,85,60,39,29.87,29.75,12,2,17,0.00
2013-8-23,90,76,67,69,65,59,93,70,43,29.88,29.71,12,2,19,0.02
2013-8-24,97,83,68,63,60,57,76,49,27,29.81,29.72,23,8,32,0.02
2013-8-25,97,85,73,63,61,57,65,47,26,29.86,29.78,23,9,31,0.00
2013-8-26,100,85,73,63,60,54,67,46,22,29.86,29.75,23,8,28,0.00
2013-8-27,98,83,70,62,59,53,68,46,22,29.79,29.71,16,7,24,0.00
2013-8-28,95,80,66,65,59,57,74,51,29,29.84,29.76,14,3,20,0.00
2013-8-29,102,84,69,66,58,47,77,47,16,29.82,29.72,12,2,17,0.00
2013-8-30,100,84,64,65,60,54,77,48,23,29.81,29.68,15,3,20,0.01
2013-8-31,95,80,68,68,64,58,87,61,35,29.87,29.64,15,3,20,0.01
2013-9-1,87,75,65,64,55,44,88,53,23,29.94,29.75,12,2,18,0.01
2013-9-2,89,75,61,55,52,48,68,46,30,29.99,29.85,9,2,17,0.00
2013-9-3,94,79,64,60,56,51,72,48,31,29.91,29.77,16,5,23,0.00
2013-9-4,98,82,69,59,56,54,60,43,23,29.91,29.82,19,4,21,0.00
2013-9-5,97,83,70,59,55,51,57,40,22,29.95,29.83,14,4,22,0.00
2013-9-6,102,85,68,53,48,45,46,31,15,29.86,29.71,13,4,23,0.00
2013-9-7,102,86,66,51,49,46,56,31,15,29.79,29.68,14,3,22,0.00
2013-9-8,100,87,73,56,52,47,51,32,17,29.73,29.56,19,6,26,0.00
2013-9-9,96,84,72,57,54,46,53,37,19,29.65,29.53,20,7,26,0.00
2013-9-10,91,77,63,65,60,53,87,60,33,29.91,29.62,10,1,21,0.00
2013-9-11,82,70,64,68,65,61,96,86,60,30.04,29.90,14,1,25,0.63
2013-9-12,69,66,63,66,64,62,96,94,89,30.12,30.04,11,2,18,0.38
2013-9-13,67,61,55,63,57,53,96,88,72,30.11,29.94,16,4,22,0.38
2013-9-14,80,67,59,68,61,54,88,81,68,29.95,29.71,17,4,20,0.11
2013-9-15,70,63,60,65,60,56,95,88,81,30.15,29.74,16,1,16,0.02
2013-9-16,60,57,54,57,54,53,96,91,86,30.20,30.08,11,2,19,0.03
2013-9-17,85,69,56,67,62,55,97,81,51,30.09,29.67,12,2,19,0.03
2013-9-18,92,76,63,66,63,57,93,67,31,29.68,29.50,13,4,20,0.03
2013-9-19,74,65,56,60,55,49,91,72,47,30.03,29.59,10,1,20,0.00
2013-9-20,76,60,46,51,48,44,94,67,34,30.11,29.93,8,1,14,0.00
2013-9-21,83,68,56,57,52,46,80,59,36,29.95,29.67,14,5,20,0.00
2013-9-22,87,71,56,58,53,48,77,57,33,29.68,29.45,18,7,33,0.00
2013-9-23,69,63,57,56,51,48,81,64,49,29.76,29.33,20,8,30,0.00
2013-9-24,79,63,50,51,44,38,90,56,24,29.98,29.76,16,4,19,0.00
2013-9-25,88,68,53,53,49,41,84,53,25,29.84,29.40,20,6,31,0.00
2013-9-26,85,71,56,54,50,47,73,50,28,29.52,29.40,10,2,19,0.00
2013-9-27,76,65,49,64,56,48,94,73,53,29.74,29.48,17,6,35,0.69
2013-9-28,69,56,43,47,41,34,93,64,28,30.05,29.75,12,5,19,0.12
2013-9-29,78,62,49,47,43,39,71,53,26,30.05,29.74,17,7,23,0.12
2013-9-30,83,66,48,53,47,40,87,56,22,29.77,29.60,9,2,16,0.00
2013-10-1,76,63,50,53,47,38,89,60,32,29.91,29.65,15,3,19,0.00
2013-10-2,79,65,54,64,58,50,93,78,56,29.83,29.68,10,1,14,0.00
2013-10-3,67,59,56,60,55,48,96,87,68,29.69,29.59,7,2,10,0.00
2013-10-4,60,52,39,58,47,32,97,84,56,30.04,29.54,36,10,41,0.01
2013-10-5,54,44,36,32,30,26,80,60,38,30.13,30.03,25,12,39,0.01
2013-10-6,70,53,40,39,34,28,68,51,30,30.12,30.06,20,7,24,0.00
2013-10-7,80,61,43,43,39,36,79,51,21,30.12,29.86,18,4,26,0.00
2013-10-8,82,65,49,42,38,33,69,42,17,29.85,29.60,19,8,29,0.00
2013-10-9,76,62,48,45,42,38,72,49,31,29.77,29.62,19,3,22,0.00
2013-10-10,84,63,47,54,47,42,92,61,27,29.77,29.40,24,6,45,0.10
2013-10-11,64,55,45,52,44,40,92,67,48,30.00,29.46,29,8,37,0.01
2013-10-12,61,52,45,43,38,34,80,62,38,30.23,29.98,5,0,8,0.01
2013-10-13,65,54,42,52,40,35,80,60,37,30.30,30.02,19,4,29,0.00
2013-10-14,72,57,43,61,50,35,94,80,33,30.02,29.57,37,12,43,0.00
2013-10-15,52,42,34,35,33,30,85,69,51,30.26,29.97,18,8,29,0.00
2013-10-16,57,42,31,36,32,28,89,69,37,30.27,30.01,10,2,14,0.04
2013-10-17,56,44,35,38,33,29,81,67,47,30.14,30.00,11,1,17,0.04
2013-10-18,52,39,33,40,32,27,95,78,53,30.20,30.11,15,2,26,0.01
2013-10-19,66,48,34,36,31,28,83,57,27,30.15,29.87,14,6,20,0.01
2013-10-20,59,49,38,41,36,30,85,60,44,30.09,29.78,13,4,18,0.00
2013-10-21,62,48,34,39,35,31,89,66,36,30.14,30.01,14,4,23,0.00
2013-10-22,68,56,47,42,39,38,71,56,35,30.06,29.98,15,4,23,0.00
2013-10-23,71,52,36,43,38,33,90,63,29,30.20,30.02,13,1,19,0.00
2013-10-24,48,41,32,39,36,31,94,83,72,30.39,30.21,6,1,10,0.00
2013-10-25,63,47,36,43,38,32,87,71,48,30.38,30.06,21,6,26,0.00
2013-10-26,62,49,38,41,35,32,90,63,33,30.31,30.08,7,1,12,0.00
2013-10-27,78,58,41,43,36,29,75,49,17,30.12,29.75,13,4,17,0.00
2013-10-28,55,44,38,39,36,34,94,76,52,30.07,29.76,11,2,17,0.00
2013-10-29,41,39,37,40,38,36,96,95,93,30.07,29.98,5,0,9,0.01
2013-10-30,54,42,36,43,38,35,96,86,63,30.05,29.79,8,1,12,0.01
2013-10-31,62,48,37,38,33,29,88,61,29,29.79,29.66,21,7,30,0.01
2013-11-1,60,48,34,39,31,23,76,53,28,30.17,29.77,22,8,29,0.00
2013-11-2,60,45,32,31,27,23,71,52,29,30.28,29.87,16,4,22,0.00
2013-11-3,68,49,36,36,32,30,83,56,29,29.86,29.47,20,6,26,0.00
2013-11-4,54,43,34,38,33,29,91,70,43,30.09,29.62,10,2,18,0.00
2013-11-5,39,36,31,37,34,29,95,91,82,30.23,29.95,11,3,21,0.01
2013-11-6,52,37,25,31,28,23,94,71,43,30.38,30.22,11,2,17,0.25
2013-11-7,56,42,30,35,32,26,88,68,44,30.51,30.14,8,1,15,0.04
2013-11-8,71,49,35,38,34,30,84,59,24,30.13,29.75,14,2,20,0.04
2013-11-9,60,45,33,35,32,29,85,64,35,30.32,29.97,7,0,10,0.00
2013-11-10,59,45,33,47,38,30,90,80,63,30.35,30.15,20,5,29,0.00
2013-11-11,44,34,26,42,30,21,92,84,74,30.81,30.13,13,1,16,0.00
2013-11-12,46,32,20,33,26,17,90,78,59,30.89,30.54,15,3,18,0.00
2013-11-13,71,48,30,38,33,27,88,61,28,30.53,29.92,17,9,20,0.00
2013-11-14,59,48,39,42,37,31,83,65,48,30.01,29.87,11,1,17,0.00
2013-11-15,62,47,36,40,36,31,88,68,38,29.87,29.41,22,5,28,0.00
2013-11-16,60,47,37,36,32,29,78,58,35,29.43,29.31,14,1,17,0.00
2013-11-17,53,45,33,35,19,12,64,37,20,30.13,29.42,32,8,42,0.00
2013-11-18,60,43,29,22,18,13,55,38,20,30.25,30.09,26,8,34,0.00
2013-11-19,56,42,30,33,27,20,69,55,41,30.10,29.74,17,6,24,0.00
2013-11-20,65,50,35,37,32,28,74,52,32,29.93,29.73,11,2,18,0.00
2013-11-21,43,23,16,31,16,11,87,76,61,30.80,29.94,13,5,21,0.00
2013-11-22,32,24,16,21,15,11,83,71,47,30.86,30.75,6,1,10,0.00
2013-11-23,30,24,20,21,17,14,83,74,58,30.91,30.71,3,0,6,0.00
2013-11-24,41,31,21,29,24,16,86,75,57,30.70,30.15,23,10,33,0.00
2013-11-25,47,30,19,31,21,17,92,71,38,30.39,30.13,7,0,13,0.00
2013-11-26,41,29,21,25,19,15,87,68,46,30.52,30.39,6,0,16,0.00
2013-11-27,22,20,19,18,15,14,82,80,76,30.51,30.37,8,2,13,0.00
2013-11-28,42,30,23,25,22,20,88,76,52,30.45,30.35,7,2,11,0.00
2013-11-29,45,33,22,33,26,19,89,78,61,30.44,30.19,6,0,11,0.00
2013-11-30,35,34,32,28,27,26,81,77,72,30.23,30.21,6,1,8,0.00
2013-12-23,26,21,19,18,10,-100,82,74,73,30.50,0.00,13,-49,17,0.00
2013-12-24,47,32,18,35,26,14,91,78,58,30.40,30.11,16,4,20,0.00
2013-12-25,45,33,25,26,22,17,92,68,40,30.49,30.33,13,4,19,0.00
2013-12-26,54,39,26,24,20,15,66,49,27,30.33,30.22,20,5,26,0.00
2013-12-27,62,46,26,26,22,17,71,41,23,30.33,30.07,19,4,20,0.00
2013-12-28,62,39,17,28,20,9,70,49,26,30.26,29.77,17,4,27,0.00
2013-12-29,27,18,9,13,7,3,78,63,46,30.48,30.22,15,2,22,0.00
2013-12-30,50,36,22,27,21,14,73,56,37,30.29,30.15,18,6,24,0.00
2013-12-31,60,41,26,29,22,-100,71,49,30,30.27,29.97,17,-8,22,0.00
2014-1-1,29,23,20,21,19,15,89,82,72,30.49,29.97,7,0,11,0.00
2014-1-2,44,31,19,26,20,-100,90,70,45,30.49,30.23,11,-10,16,0.00